Weather History for Bozeman, MT

Change the Weather History Date:

Tuesday, July 30, 2013

  Actual Average Record
Temperature  
Mean Temperature 66 °F 71 °F  
Max Temperature 81 °F 90 °F 101 °F (2007)
Min Temperature 50 °F 52 °F 38 °F (1971)
Degree Days  
Heating Degree Days 0    
Month to date heating degree days 2  
Since 1 June heating degree days 169  
Since 1 July heating degree days 2  
Cooling Degree Days 1    
Month to date cooling degree days 133  
Year to date cooling degree days 162  
Since 1 June cooling degree days 160  
Growing Degree Days 15 (Base 50)    
Moisture  
Dew Point 46 °F    
Average Humidity 56    
Maximum Humidity 86    
Minimum Humidity 25    
Precipitation  
Precipitation T in 0.03 in 0.81 in (1975)
Month to date precipitation 0.30 1.09  
Year to date precipitation 7.30 9.39  
Snow  
Snow 0.00 in 0.00 in 0.00 in (1999)
Month to date snowfall 0.0 0.0  
Since 1 June snowfall 0.0 0.0  
Since 1 July snowfall 0.0 0.0  
Snow Depth 0.00 in    
Sea Level Pressure  
Sea Level Pressure 30.08 in    
Wind  
Wind Speed 6 mph (SSW)    
Max Wind Speed 30 mph    
Max Gust Speed 35 mph    
Visibility 10 miles    
Events      
T = Trace of Precipitation, MM = Missing Value Source: NWS Daily Summary

Daily Weather History Graph

Daily Weather History Graph

Search for Another Location

Airport:

Trip Planner

Search our weather history database for the weather conditions in past years. The results will help you decide how hot, cold, wet, or windy it might be!

Date:

Astronomy

Jul. 30, 2013 Rise Set
Actual Time 6:05 AM MDT 8:55 PM MDT
Civil Twilight 5:31 AM MDT 9:30 PM MDT
Nautical Twilight 4:46 AM MDT 10:13 PM MDT
Astronomical Twilight 3:54 AM MDT 11:05 PM MDT
Moon 12:28 AM MDT (7/30) 3:18 PM MDT (7/30)
Length of Visible Light 15h 59m
Length of Day
14h 49m
Last Quarter, 40% of the Moon is Illuminated
Jul 30
Last Quarter
Aug 6
New
Aug 14
First Quarter
Aug 20
Full
Aug 28
Last Quarter

Hourly Weather History & Observations

Time (MDT) Temp. Dew Point Humidity Pressure Visibility Wind Dir Wind Speed Gust Speed Precip Events Conditions
12:56 AM 59.0 °F 48.9 °F 69% 29.97 in 10.0 mi North 3.5 mph - N/A   Partly Cloudy
1:56 AM 57.0 °F 48.0 °F 72% 29.99 in 10.0 mi Calm Calm - N/A   Clear
2:56 AM 55.9 °F 46.9 °F 72% 29.99 in 10.0 mi East 3.5 mph - N/A   Clear
3:56 AM 54.0 °F 48.0 °F 80% 30.01 in 10.0 mi Calm Calm - N/A   Clear
4:56 AM 54.0 °F 46.9 °F 77% 30.02 in 10.0 mi SSW 4.6 mph - N/A   Clear
5:56 AM 50.0 °F 46.0 °F 86% 30.06 in 10.0 mi South 3.5 mph - N/A   Clear
6:56 AM 55.0 °F 46.9 °F 74% 30.09 in 10.0 mi SW 4.6 mph - N/A   Clear
7:56 AM 57.9 °F 48.0 °F 70% 30.12 in 10.0 mi WSW 3.5 mph - N/A   Partly Cloudy
8:56 AM 61.0 °F 50.0 °F 67% 30.13 in 10.0 mi SSW 4.6 mph - N/A   Partly Cloudy
9:56 AM 64.9 °F 50.0 °F 58% 30.09 in 10.0 mi SSE 6.9 mph - N/A   Clear
10:56 AM 69.1 °F 50.0 °F 51% 30.09 in 10.0 mi WNW 3.5 mph - N/A   Clear
11:56 AM 68.0 °F 50.0 °F 52% 30.10 in 10.0 mi Calm Calm - 0.00 in   Mostly Cloudy
12:56 PM 70.0 °F 52.0 °F 53% 30.11 in 10.0 mi North 3.5 mph - N/A   Mostly Cloudy
1:56 PM 75.0 °F 48.9 °F 40% 30.08 in 10.0 mi North 8.1 mph - 0.00 in   Clear
2:56 PM 80.1 °F 43.0 °F 27% 30.04 in 10.0 mi Variable 4.6 mph - N/A   Clear
3:56 PM 79.0 °F 39.0 °F 24% 30.04 in 10.0 mi North 6.9 mph 20.7 mph N/A   Clear
4:56 PM 78.1 °F 45.0 °F 31% 30.06 in 10.0 mi NNW 24.2 mph 33.4 mph N/A   Partly Cloudy
5:56 PM 73.0 °F 45.0 °F 37% 30.09 in 10.0 mi North 11.5 mph - N/A   Clear
6:56 PM 75.0 °F 41.0 °F 29% 30.10 in 10.0 mi Calm Calm - N/A   Overcast
7:27 PM 75.2 °F 37.4 °F 25% 30.19 in 10.0 mi Calm Calm - N/A   Mostly Cloudy
7:56 PM 73.9 °F 39.9 °F 29% 30.10 in 10.0 mi South 16.1 mph - N/A   Clear
8:56 PM 66.9 °F 43.0 °F 42% 30.12 in 10.0 mi SSE 8.1 mph - N/A   Clear
9:56 PM 59.0 °F 44.1 °F 58% 30.16 in 10.0 mi SE 5.8 mph - N/A   Clear
10:56 PM 55.9 °F 45.0 °F 67% 30.17 in 10.0 mi SE 6.9 mph - N/A   Clear
11:56 PM 60.1 °F 45.0 °F 57% 30.17 in 10.0 mi SSW 3.5 mph - N/A   Clear